Location: Hawks Ness
(60.2333°N, 1.1667°W)
Time: 09:01:28
(UTC+00:00)

ADEOS Rocket - Pass Details

Date: 22 October 2019
Orbit: 859 x 1306 km, 98.7° (Epoch: 13 November)

Event Time Altitude Azimuth Distance (km) Brightness Sun altitude
Rises 06:00:58 0° 150° (SSE) 4,117 6.9 -8.1°
Reaches altitude 10° 06:03:32 10° 148° (SSE) 3,201 6.3 -7.7°
Maximum altitude 06:11:00 75° 66° (ENE) 1,336 3.9 -6.8°
Drops below altitude 10° 06:18:49 10° 343° (NNW) 3,340 5.5 -5.9°
Sets 06:21:32 0° 342° (NNW) 4,305 6.1 -5.5°
